Weather History for KNPA - November, 2011

Change the Weather History Date:

Tuesday, November 15, 2011

  Actual Average Record
Temperature  
Mean Temperature 74 °F -  
Max Temperature 79 °F 69 °F 80 °F (2001)
Min Temperature 69 °F 50 °F 32 °F (2014)
Cooling Degree Days 9    
Growing Degree Days 24 (Base 50)    
Moisture  
Dew Point 71 °F    
Average Humidity 92    
Maximum Humidity 100    
Minimum Humidity 81    
Precipitation  
Precipitation 0.17 in - - ()
Sea Level Pressure  
Sea Level Pressure 29.94 in    
Wind  
Wind Speed 8 mph (SSE)    
Max Wind Speed 17 mph    
Max Gust Speed 24 mph    
Visibility 9 miles    
Events Rain    
Averages and records for this station are not official NWS values.
T = Trace of Precipitation, MM = Missing Value Source: NWS Daily Summary

Daily Weather History Graph

Daily Weather History Graph

Search for Another Location

Airport or City:

Trip Planner

Search our weather history database for the weather conditions in past years. The results will help you decide how hot, cold, wet, or windy it might be!

Date:

Astronomy

Nov. 15, 2011 Rise Set
Actual Time 6:14 AM CST 4:52 PM CST
Civil Twilight 5:49 AM CST 5:18 PM CST
Nautical Twilight 5:20 AM CST 5:47 PM CST
Astronomical Twilight 4:51 AM CST 6:15 PM CST
Moon 9:02 PM CST (11/15) 10:11 AM CST (11/15)
Length of Visible Light 11h 28m
Length of Day
10h 37m
Waning Gibbous, 79% of the Moon is Illuminated
Nov 15
Waning Gibbous
Nov 18
Last Quarter
Nov 25
New
Dec 2
First Quarter
Dec 10
Full

Hourly Weather History & Observations

Time (CST) Temp. Dew Point Humidity Pressure Visibility Wind Dir Wind Speed Gust Speed Precip Events Conditions
12:56 AM 70.0 °F 68.0 °F 93% 29.99 in 10.0 mi SSE 5.8 mph - N/A   Clear
1:56 AM 69.1 °F 68.0 °F 96% 29.98 in 10.0 mi SE 8.1 mph - N/A   Clear
2:56 AM 70.0 °F 69.1 °F 97% 29.96 in 9.0 mi SE 9.2 mph - N/A   Scattered Clouds
3:56 AM 70.0 °F 69.1 °F 97% 29.96 in 8.0 mi SE 8.1 mph - N/A   Clear
4:56 AM 70.0 °F 69.1 °F 97% 29.96 in 7.0 mi SE 6.9 mph - N/A   Clear
5:56 AM 69.1 °F 69.1 °F 100% 29.96 in 8.0 mi South 3.5 mph - N/A   Mostly Cloudy
6:56 AM 72.0 °F 71.1 °F 97% 29.97 in 9.0 mi SE 3.5 mph - N/A   Overcast
7:56 AM 73.0 °F 71.1 °F 93% 29.99 in 10.0 mi SE 6.9 mph - N/A   Overcast
8:56 AM 73.9 °F 72.0 °F 93% 29.99 in 10.0 mi SE 6.9 mph - N/A   Mostly Cloudy
9:56 AM 77.0 °F 72.0 °F 84% 30.00 in 10.0 mi SSE 11.5 mph - N/A   Overcast
10:56 AM 78.1 °F 72.0 °F 81% 29.99 in 10.0 mi SSE 11.5 mph - N/A   Overcast
11:56 AM 78.1 °F 72.0 °F 81% 29.96 in 10.0 mi SSE 12.7 mph - N/A   Mostly Cloudy
12:56 PM 79.0 °F 73.0 °F 82% 29.94 in 10.0 mi SSE 15.0 mph - N/A   Mostly Cloudy
1:56 PM 79.0 °F 73.0 °F 82% 29.92 in 10.0 mi SSE 12.7 mph - N/A   Mostly Cloudy
2:38 PM 77.0 °F 73.4 °F 89% 29.90 in 10.0 mi SSE 12.7 mph - N/A   Mostly Cloudy
2:56 PM 77.0 °F 72.0 °F 84% 29.90 in 10.0 mi SE 11.5 mph - N/A   Mostly Cloudy
3:56 PM 75.0 °F 72.0 °F 90% 29.89 in 10.0 mi SE 10.4 mph - N/A   Mostly Cloudy
4:56 PM 73.9 °F 72.0 °F 93% 29.90 in 9.0 mi SE 5.8 mph - N/A   Mostly Cloudy
5:56 PM 73.0 °F 72.0 °F 96% 29.91 in 9.0 mi SE 5.8 mph - N/A   Mostly Cloudy
6:56 PM 73.0 °F 72.0 °F 96% 29.91 in 7.0 mi SE 5.8 mph - N/A   Mostly Cloudy
7:49 PM 73.4 °F 73.4 °F 100% 29.91 in 7.0 mi South 6.9 mph - 0.00 in Rain Light Rain
7:56 PM 73.0 °F 72.0 °F 96% 29.92 in 6.0 mi SW 6.9 mph - 0.00 in   Overcast
8:31 PM 73.4 °F 71.6 °F 94% 29.91 in 3.0 mi South 17.3 mph 24.2 mph 0.10 in Rain Heavy Rain
8:56 PM 70.0 °F 70.0 °F 100% 29.91 in 8.0 mi South 12.7 mph - 0.13 in Rain Light Rain
9:15 PM 71.6 °F 69.8 °F 94% 29.91 in 7.0 mi South 6.9 mph - 0.00 in   Overcast
9:56 PM 71.1 °F 70.0 °F 96% 29.91 in 7.0 mi South 6.9 mph - 0.00 in   Overcast
10:56 PM 72.0 °F 70.0 °F 93% 29.91 in 10.0 mi SSW 10.4 mph - 0.00 in   Overcast
11:56 PM 71.1 °F 69.1 °F 93% 29.91 in 7.0 mi SSW 12.7 mph - 0.04 in Rain Light Rain